Location: Bretagne
(43.8474°N, 0.4650°W)
Time: 06:49:06
(UTC+00:00)

RESURS DK-1 - Pass Details

Date: 15 January 2026
Orbit: 525 x 531 km, 69.9° (Epoch: 10 February)

Event Time Altitude Azimuth Distance (km) Brightness Sun altitude
Rises 18:24:58 0° 201° (SSW) 2,660 6.3 -16.8°
Reaches altitude 10° 18:27:08 10° 200° (SSW) 1,775 5.3 -17.1°
Maximum altitude 18:31:05 76° 115° (ESE) 553 2.1 -17.8°
Enters shadow 18:32:42 34° 35° (NE) 890 3.0 -18.1°
